Weather History for Trieste, Italy

Change the Weather History Date:

Sunday, November 6, 2011

  Actual Average Record
Temperature  
Mean Temperature 62 °F -  
Max Temperature 65 °F 53 °F 68 °F (2014)
Min Temperature 59 °F 45 °F 41 °F (2002)
Degree Days  
Heating Degree Days 3    
Growing Degree Days 12 (Base 50)    
Moisture  
Dew Point 50 °F    
Average Humidity 63    
Maximum Humidity 72    
Minimum Humidity 48    
Precipitation  
Precipitation 0.01 in 0.14 in - ()
Sea Level Pressure  
Sea Level Pressure 29.96 in    
Wind  
Wind Speed 8 mph ()    
Max Wind Speed 20 mph    
Max Gust Speed 40 mph    
Visibility 6.2 miles    
Events      
Averages and records for this station are not official NWS values.
T = Trace of Precipitation, MM = Missing Value Source: Averaged Metar Reports

Daily Weather History Graph

Daily Weather History Graph

Search for Another Location

Airport:

Trip Planner

Search our weather history database for the weather conditions in past years. The results will help you decide how hot, cold, wet, or windy it might be!

Date:

Astronomy

Nov. 06, 2011 Rise Set
Actual Time 6:51 AM CET 4:45 PM CET
Civil Twilight 6:19 AM CET 5:16 PM CET
Nautical Twilight 5:44 AM CET 5:52 PM CET
Astronomical Twilight 5:09 AM CET 6:26 PM CET
Moon 2:31 PM CET (11/6) 2:30 AM CET (11/6)
Length of Visible Light 10h 57m
Length of Day
9h 54m
Waxing Gibbous, 84% of the Moon is Illuminated
Nov 6
Waxing Gibbous
Nov 10
Full
Nov 18
Last Quarter
Nov 25
New
Dec 2
First Quarter

Hourly Weather History & Observations

Time (CET) Temp. Dew Point Humidity Pressure Visibility Wind Dir Wind Speed Gust Speed Precip Events Conditions
12:55 AM 60.8 °F 51.8 °F 72% 29.98 in 6.2 mi ESE 2.3 mph - N/A   Scattered Clouds
1:00 AM 61 °F 52 °F 65% 29.99 in 6 mi ESE 2.3 mph - -   Partly Cloudy
1:55 AM 60.8 °F 51.8 °F 72% 29.98 in 6.2 mi East 3.5 mph - N/A   Scattered Clouds
2:55 AM 62.6 °F 51.8 °F 68% 29.98 in 6.2 mi SE 6.9 mph - N/A   Scattered Clouds
3:55 AM 62.6 °F 51.8 °F 68% 29.98 in 6.2 mi SE 4.6 mph - N/A   Scattered Clouds
4:55 AM 60.8 °F 51.8 °F 72% 29.98 in 6.2 mi SSE 3.5 mph - N/A   Scattered Clouds
5:55 AM 60.8 °F 48.2 °F 63% 29.95 in 6.2 mi ENE 10.4 mph - N/A   Scattered Clouds
6:55 AM 62.6 °F 50.0 °F 63% 29.95 in 6.2 mi NE 10.4 mph 21.9 mph N/A   Scattered Clouds
7:00 AM 62 °F 51 °F 58% 29.97 in 6 mi NE 10.4 mph - -   Partly Cloudy
7:55 AM 62.6 °F 50.0 °F 63% 29.98 in 6.2 mi ENE 12.7 mph - N/A   Partly Cloudy
8:55 AM 64.4 °F 50.0 °F 59% 29.98 in 6.2 mi NE 16.1 mph - N/A   Partly Cloudy
9:55 AM 64.4 °F 50.0 °F 59% 29.98 in 6.2 mi NNE 11.5 mph 25.3 mph N/A   Scattered Clouds
10:55 AM 64.4 °F 51.8 °F 64% 29.98 in 6.2 mi NE 8.1 mph - N/A   Scattered Clouds
11:55 AM 64.4 °F 50.0 °F 59% 29.95 in 6.2 mi NE 13.8 mph 31.1 mph N/A   Scattered Clouds
12:55 PM 64.4 °F 50.0 °F 59% 29.95 in 6.2 mi NNE 13.8 mph 27.6 mph N/A   Mostly Cloudy
1:00 PM 64 °F 51 °F 52% 29.95 in 6 mi NNE 13.8 mph - -   Overcast
1:55 PM 64.4 °F 50.0 °F 59% 29.95 in 6.2 mi NNE 11.5 mph - N/A   Mostly Cloudy
4:55 PM 64.4 °F 50.0 °F 59% 29.92 in 6.2 mi ENE 16.1 mph 32.2 mph N/A   Mostly Cloudy
5:55 PM 62.6 °F 50.0 °F 63% 29.92 in 6.2 mi ENE 18.4 mph 35.7 mph N/A   Mostly Cloudy
6:55 PM 62.6 °F 48.2 °F 59% 29.95 in 6.2 mi ENE 19.6 mph 40.3 mph N/A   Scattered Clouds
7:00 PM 63 °F 48 °F 48% 29.95 in 6 mi ENE 19.6 mph - -   Partly Cloudy
8:55 PM 59.0 °F 50.0 °F 72% 29.98 in 6.2 mi East 3.5 mph - N/A   Light Drizzle
9:55 PM 59.0 °F 50.0 °F 72% 29.98 in 6.2 mi ENE 15.0 mph 29.9 mph N/A   Light Drizzle
10:55 PM 59.0 °F 50.0 °F 72% 29.95 in 6.2 mi NE 17.3 mph 35.7 mph N/A   Scattered Clouds
11:55 PM 59.0 °F 48.2 °F 67% 29.98 in 6.2 mi ENE 15.0 mph 33.4 mph N/A   Mostly Cloudy